Hourly Weather Roundup
Issued by NWS Central Illinois

Home | Current Version | Previous Version | Text Only | Print | Product List | Glossary On
Versions: 1 2 3 4 5 6 7 8 9 10 11 12 13 14 15 16 17 18 19 20 21 22 23 24 25 26 27 28 29 30 31 32 33 34 35 36 37 38 39 40 41 42 43 44 45 46 47 48 49 50
000
NZUS43 KILX 270710
HWRILX

Area Weather Roundup
National Weather Service Lincoln IL
200 AM CDT SAT MAY 27 2017

NOTE:  "FAIR" indicates few or no clouds below 12,000 feet, with
       no sigificant weather and/or obstructions to visibility.


CITY           SKY/WX    TMP DP  RH WIND       PRES   REMARKS
Bloomington    CLOUDY    62  62 100 NW9       29.85S FOG
Champaign      CLEAR     64  62  93 NW7       29.83S
Danville       CLOUDY    64  64  97 NW5       29.80S
Decatur        CLEAR     65  62  90 NW5       29.83F
Effingham      CLEAR     68  68  99 SW5       29.83F
Flora          CLEAR     69  67  92 SW8       29.83F
Galesburg      CLOUDY    58  58 100 N8        29.87S FOG
Jacksonville   CLEAR     62  61  96 CALM      29.86R
Lacon          CLOUDY    59  59  99 N5        29.86S FOG
Lawrenceville  PTCLDY    69  67  93 SW6       29.82F
Litchfield     MOCLDY    67  66  94 NW5       29.85R
$$


CITY           SKY/WX    TMP DP  RH WIND       PRES   REMARKS
Lincoln        CLEAR     64  64 100 CALM      29.84S
Macomb         CLEAR     58  58  99 N6        29.88F FOG
Mattoon        CLEAR     68  67  96 W7        29.81F
Mt Carmel AP   CLEAR     69  66  91 SW5       29.82F
Olney-Noble AP CLEAR     68  68 100 SW3       29.83F
Paris AP       CLEAR     66  65  96 SW5       29.82F
Peoria         CLOUDY    61  61 100 N7        29.86S FOG
Pontiac        CLOUDY    60  59  97 N7        29.86R FOG
Rantoul        CLOUDY    65  65  99 N9        29.83S FOG
Robinson       CLEAR     67  66  94 SW3       29.83F
Springfield    CLEAR     66  64  93 N6        29.84S
Taylorville    PTCLDY    67  65  94 NW7       29.83F
$$

...REGIONAL REPORTS...


CITY           SKY/WX    TMP DP  RH WIND       PRES   REMARKS
Chicago O`Hare MOCLDY    56  51  84 NE6       29.86S
Kankakee       CLOUDY    59  58  97 CALM      29.84S FOG
Moline         CLOUDY    60  56  86 E7        29.87F FOG
Mount Sterling CLEAR     60  59  96 N6        29.86S
Mount Vernon     N/A     67  66  97 SW6       29.85S
Pittsfield     CLEAR     64  62  94 NW3       29.88R
Quincy         CLEAR     61  59  93 NE5       29.86S
Rockford       FOG       53  52  96 NE3       29.90S VSB 3/4
$$


CITY           SKY/WX    TMP DP  RH WIND       PRES   REMARKS
Burlington     CLEAR     60  59  96 NE3       29.86F FOG
Cedar Rapids   FOG       55  55 100 SE5       29.86F VSB 1/4
Des Moines     PTCLDY    65  61  87 NE3       29.86R
Kirksville     CLEAR     62  61  96 E3        29.87S
Ottumwa        PTCLDY    59  59 100 E5        29.85F
St Louis       MOCLDY    74  68  81 W3        29.86R
$$


CITY           SKY/WX    TMP DP  RH WIND       PRES   REMARKS
Terre Haute    CLOUDY    70  65  84 SW8       29.82S
Evansville     PTCLDY    71  67  87 SW8       29.85F
Indianapolis   MOCLDY    67  64  90 W5        29.81F
Lafayette      MOCLDY    65  65 100 W5        29.80S
Madison        FOG       49  49 100 CALM      29.88F VSB 1/4
Milwaukee      PTCLDY    51  50  96 CALM      29.88S
$$






USA.gov is the U.S. government's official web portal to all federal, state and local government web resources and services.